Location: Dalton
(34.7700°N, 84.9700°W)
Time: 11:07:47
(UTC-05:00)

Tiangong 2 - Pass Details

Date: 15 October 2017
Orbit: 386 x 390 km, 42.8° (Epoch: 14 December)

Event Time Altitude Azimuth Distance (km) Brightness Sun altitude
Exits shadow 05:35:16 12° 38° (NE) 1,297 4.3 -27.5°
Drops below altitude 10° 05:35:42 10° 44° (NE) 1,422 4.6 -27.4°
Sets 05:38:09 0° 62° (ENE) 2,280 6.1 -26.9°
